,

(GMT )
Al Udeid

Weather History for KQIR - November, 2012

Change the Weather History Date:

Friday, November 30, 2012

  Actual Average Record
Temperature  
Mean Temperature 66 °F -  
Max Temperature 72 °F - - ()
Min Temperature 61 °F - - ()
Cooling Degree Days 2    
Growing Degree Days 16 (Base 50)    
Moisture  
Dew Point 48 °F    
Average Humidity 53    
Maximum Humidity 72    
Minimum Humidity 33    
Precipitation  
Precipitation 0.00 in - - ()
Sea Level Pressure  
Sea Level Pressure 30.13 in    
Wind  
Wind Speed 10 mph ()    
Max Wind Speed 20 mph    
Max Gust Speed -    
Visibility 6.2 miles    
Events      
T = Trace of Precipitation, MM = Missing Value Source: Averaged Metar Reports

Daily Weather History Graph

Daily Weather History Graph

Search for Another Location

Airport or City:

Trip Planner

Search our weather history database for the weather conditions in past years. The results will help you decide how hot, cold, wet, or windy it might be!

Date:

Astronomy

Nov. 30, 2012 Rise Set
Actual Time 6:02 AM AST 4:44 PM AST
Civil Twilight 5:37 AM AST 5:09 PM AST
Nautical Twilight 5:09 AM AST 5:37 PM AST
Astronomical Twilight 4:41 AM AST 6:05 PM AST
Moon 6:17 PM AST (11/30) 7:17 AM AST (11/30)
Length of Visible Light 11h 31m
Length of Day
10h 41m
Full, 97% of the Moon is Illuminated
Nov 30
Full
Dec 6
Last Quarter
Dec 13
New
Dec 20
First Quarter
Dec 28
Full

Hourly Weather History & Observations

Time (AST) Temp. Dew Point Humidity Pressure Visibility Wind Dir Wind Speed Gust Speed Precip Events Conditions
12:55 AM 64.6 °F 54.7 °F 70% 30.11 in 6.2 mi NW 13.8 mph - N/A   Scattered Clouds
1:55 AM 63.9 °F 54.9 °F 72% 30.11 in 6.2 mi WNW 8.1 mph - N/A   Scattered Clouds
2:55 AM 64.0 °F 54.7 °F 72% 30.11 in 6.2 mi WNW 10.4 mph - N/A   Mostly Cloudy
3:55 AM 63.7 °F 54.0 °F 71% 30.12 in 6.2 mi WNW 9.2 mph - N/A   Partly Cloudy
4:55 AM 62.4 °F 52.7 °F 70% 30.13 in 6.2 mi WNW 6.9 mph - N/A   Scattered Clouds
5:55 AM 61.0 °F 51.6 °F 71% 30.14 in 6.2 mi WNW 8.1 mph - N/A   Partly Cloudy
6:55 AM 62.2 °F 51.8 °F 69% 30.16 in 6.2 mi WNW 8.1 mph - N/A   Clear
7:55 AM 64.8 °F 51.3 °F 62% 30.17 in 6.2 mi NW 12.7 mph - N/A   Clear
8:55 AM 68.7 °F 45.9 °F 44% 30.18 in 6.2 mi NW 19.6 mph - N/A   Clear
9:55 AM 71.1 °F 43.9 °F 38% 30.17 in 6.2 mi NW 19.6 mph - N/A   Clear
10:55 AM 71.8 °F 41.7 °F 34% 30.15 in 6.2 mi NW 17.3 mph - N/A   Clear
11:55 AM 72.9 °F 44.8 °F 37% 30.12 in 6.2 mi NW 16.1 mph - N/A   Clear
12:55 PM 72.9 °F 44.6 °F 36% 30.11 in 6.2 mi WNW 16.1 mph - N/A   Clear
1:55 PM 72.7 °F 42.1 °F 33% 30.10 in 6.2 mi WNW 16.1 mph - N/A   Clear
2:55 PM 72.3 °F 43.9 °F 36% 30.10 in 6.2 mi NW 17.3 mph - N/A   Clear
3:55 PM 70.9 °F 46.6 °F 42% 30.11 in 6.2 mi WNW 15.0 mph - N/A   Clear
4:55 PM 68.9 °F 44.1 °F 41% 30.11 in 6.2 mi WNW 12.7 mph - N/A   Clear
5:55 PM 67.5 °F 49.5 °F 52% 30.13 in 6.2 mi NW 6.9 mph - N/A   Clear
6:55 PM 66.0 °F 46.8 °F 50% 30.14 in 6.2 mi WNW 5.8 mph - N/A   Clear
7:55 PM 64.2 °F 45.5 °F 51% 30.14 in 6.2 mi West 6.9 mph - N/A   Clear
8:55 PM 65.3 °F 45.9 °F 49% 30.13 in 6.2 mi West 6.9 mph - N/A   Scattered Clouds
9:55 PM 64.0 °F 46.0 °F 52% 30.12 in 6.2 mi West 8.1 mph - N/A   Scattered Clouds
10:55 PM 63.5 °F 50.0 °F 61% 30.11 in 6.2 mi West 8.1 mph - N/A   Partly Cloudy
11:55 PM 63.5 °F 51.1 °F 64% 30.09 in 6.2 mi WNW 10.4 mph - N/A   Clear